Brookings, OR

5:42 PM PST on February 05, 2016 (GMT -0800)
Brookings State

Weather History for KBOK - November, 2013

Change the Weather History Date:

Tuesday, November 5, 2013

  Actual Average Record
Temperature  
Mean Temperature 50 °F -  
Max Temperature 54 °F 61 °F 79 °F (2012)
Min Temperature 47 °F 46 °F 30 °F (1971)
Degree Days  
Heating Degree Days 14    
Moisture  
Dew Point 51 °F    
Average Humidity 99    
Maximum Humidity 100    
Minimum Humidity 93    
Precipitation  
Precipitation 0.14 in - - ()
Sea Level Pressure  
Sea Level Pressure 30.26 in    
Wind  
Wind Speed 4 mph (SE)    
Max Wind Speed 7 mph    
Max Gust Speed -    
Visibility 3 miles    
Events Fog , Rain    
Averages and records for this station are not official NWS values.
T = Trace of Precipitation, MM = Missing Value Source: NWS Daily Summary

Daily Weather History Graph

Daily Weather History Graph

Search for Another Location

Airport or City:

Trip Planner

Search our weather history database for the weather conditions in past years. The results will help you decide how hot, cold, wet, or windy it might be!

Date:

Astronomy

Nov. 05, 2013 Rise Set
Actual Time 6:55 AM PST 5:05 PM PST
Civil Twilight 6:25 AM PST 5:35 PM PST
Nautical Twilight 5:52 AM PST 6:08 PM PST
Astronomical Twilight 5:19 AM PST 6:40 PM PST
Moon 9:17 AM PST (11/5) 7:11 PM PST (11/5)
Length of Visible Light 11h 09m
Length of Day
10h 10m
Waxing Crescent, 7% of the Moon is Illuminated
Nov 5
Waxing Crescent
Nov 9
First Quarter
Nov 17
Full
Nov 25
Last Quarter
Dec 2
New

Hourly Weather History & Observations

Time (PST) Temp. Dew Point Humidity Pressure Visibility Wind Dir Wind Speed Gust Speed Precip Events Conditions
12:56 AM 47.8 °F 47.8 °F 100% 30.23 in 10.0 mi Calm Calm - 0.00 in Rain Light Rain
1:56 AM 47.8 °F 46.9 °F 97% 30.24 in 10.0 mi ESE 4.6 mph - 0.00 in   Overcast
2:56 AM 47.8 °F 46.9 °F 97% 30.23 in 7.0 mi Variable 4.6 mph - 0.00 in   Overcast
3:56 AM 47.8 °F 46.9 °F 97% 30.23 in 4.0 mi Variable 3.5 mph - 0.00 in   Overcast
4:03 AM 48.2 °F 46.4 °F 93% 30.23 in 2.5 mi Variable 3.5 mph - N/A   Overcast
4:07 AM 48.2 °F 46.4 °F 93% 30.23 in 3.0 mi Variable 4.6 mph - N/A   Overcast
4:26 AM 48.2 °F 46.4 °F 93% 30.23 in 1.8 mi SE 3.5 mph - 0.00 in Rain Light Rain
4:56 AM 47.8 °F 46.9 °F 97% 30.24 in 2.5 mi Variable 5.8 mph - 0.03 in Rain Light Rain
5:14 AM 48.2 °F 48.2 °F 100% 30.22 in 3.0 mi Variable 4.6 mph - 0.00 in Rain Light Rain
5:56 AM 48.9 °F 47.8 °F 96% 30.24 in 4.0 mi Variable 5.8 mph - 0.00 in   Overcast
6:11 AM 48.2 °F 48.2 °F 100% 30.23 in 2.5 mi Variable 4.6 mph - N/A   Overcast
6:45 AM 48.2 °F 48.2 °F 100% 30.24 in 1.8 mi Variable 3.5 mph - 0.01 in Rain Light Rain
6:56 AM 48.9 °F 47.8 °F 96% 30.25 in 1.8 mi Variable 4.6 mph - 0.01 in Rain Light Rain
7:21 AM 48.2 °F 48.2 °F 100% 30.25 in 1.0 mi Variable 5.8 mph - 0.01 in Rain Light Rain
7:33 AM 48.2 °F 48.2 °F 100% 30.25 in 0.8 mi ENE 6.9 mph - 0.02 in Rain Light Rain
7:38 AM 48.2 °F 48.2 °F 100% 30.25 in 1.0 mi Variable 4.6 mph - 0.02 in Rain Light Rain
7:56 AM 48.9 °F 47.8 °F 96% 30.26 in 1.0 mi Variable 6.9 mph - 0.02 in Rain Light Rain
8:34 AM 48.2 °F 48.2 °F 100% 30.27 in 0.8 mi Variable 3.5 mph - 0.01 in Rain Light Rain
8:56 AM 50.0 °F 48.9 °F 96% 30.28 in 0.8 mi East 5.8 mph - 0.03 in Rain Light Rain
9:24 AM 50.0 °F 50.0 °F 100% 30.27 in 1.0 mi ENE 5.8 mph - 0.02 in Rain Light Rain
9:56 AM 50.9 °F 50.9 °F 100% 30.28 in 1.0 mi Variable 4.6 mph - 0.03 in Rain Light Rain
10:15 AM 51.8 °F 51.8 °F 100% 30.27 in 1.2 mi Variable 4.6 mph - 0.01 in Rain Light Rain
10:35 AM 51.8 °F 51.8 °F 100% 30.27 in 1.5 mi Variable 4.6 mph - 0.01 in   Overcast
10:48 AM 51.8 °F 51.8 °F 100% 30.27 in 2.0 mi Variable 4.6 mph - 0.01 in   Overcast
10:56 AM 52.9 °F 52.0 °F 97% 30.28 in 1.2 mi Variable 4.6 mph - 0.01 in   Overcast
11:05 AM 53.6 °F 51.8 °F 94% 30.27 in 1.0 mi ESE 4.6 mph - N/A   Overcast
11:25 AM 53.6 °F 53.6 °F 100% 30.27 in 0.8 mi Variable 3.5 mph - N/A   Overcast
11:47 AM 53.6 °F 53.6 °F 100% 30.25 in 1.0 mi South 5.8 mph - N/A   Overcast
11:56 AM 54.0 °F 52.9 °F 96% 30.27 in 0.8 mi South 6.9 mph - N/A   Overcast
12:07 PM 53.6 °F 53.6 °F 100% 30.25 in 0.5 mi South 3.5 mph - N/A Fog Fog
12:56 PM 52.9 °F 52.9 °F 100% 30.26 in 0.8 mi Calm Calm - N/A   Overcast
1:05 PM 53.6 °F 53.6 °F 100% 30.26 in 0.2 mi WSW 3.5 mph - N/A Fog Fog
1:14 PM 53.6 °F 53.6 °F 100% 30.26 in 0.2 mi Calm Calm - N/A Fog Fog
1:24 PM 53.6 °F 53.6 °F 100% 30.26 in 0.2 mi Calm Calm - N/A Fog Fog
1:32 PM 53.6 °F 53.6 °F 100% 30.26 in 0.5 mi Calm Calm - N/A Fog Fog
1:44 PM 53.6 °F 53.6 °F 100% 30.26 in 0.8 mi Calm Calm - N/A   Overcast
1:56 PM 52.9 °F 52.9 °F 100% 30.26 in 1.0 mi SSE 4.6 mph - N/A   Overcast
2:11 PM 53.6 °F 53.6 °F 100% 30.25 in 1.2 mi SE 5.8 mph - N/A   Overcast
2:31 PM 53.6 °F 53.6 °F 100% 30.26 in 1.8 mi South 3.5 mph - N/A   Overcast
2:56 PM 52.9 °F 52.9 °F 100% 30.26 in 1.2 mi SSE 5.8 mph - 0.01 in   Overcast
3:03 PM 53.6 °F 53.6 °F 100% 30.25 in 1.0 mi South 4.6 mph - N/A   Overcast
3:29 PM 53.6 °F 53.6 °F 100% 30.26 in 1.2 mi Variable 3.5 mph - N/A   Overcast
3:36 PM 53.6 °F 53.6 °F 100% 30.26 in 1.5 mi SE 3.5 mph - N/A   Overcast
3:56 PM 52.9 °F 52.9 °F 100% 30.26 in 2.0 mi ESE 3.5 mph - N/A   Overcast
4:14 PM 53.6 °F 53.6 °F 100% 30.25 in 3.0 mi ESE 4.6 mph - N/A   Overcast
4:35 PM 53.6 °F 53.6 °F 100% 30.25 in 1.8 mi SSE 5.8 mph - N/A   Overcast
4:56 PM 52.9 °F 52.9 °F 100% 30.26 in 1.0 mi SE 3.5 mph - N/A   Overcast
5:02 PM 53.6 °F 53.6 °F 100% 30.26 in 0.5 mi ESE 4.6 mph - N/A Fog Fog
5:19 PM 53.6 °F 53.6 °F 100% 30.25 in 1.0 mi SE 4.6 mph - N/A   Overcast
5:26 PM 53.6 °F 53.6 °F 100% 30.26 in 1.2 mi SSE 4.6 mph - N/A   Overcast
5:42 PM 53.6 °F 53.6 °F 100% 30.27 in 1.8 mi Calm Calm - N/A   Overcast
5:56 PM 52.9 °F 52.9 °F 100% 30.27 in 2.0 mi SSE 4.6 mph - N/A   Overcast
6:09 PM 53.6 °F 53.6 °F 100% 30.26 in 4.0 mi SE 4.6 mph - N/A   Mostly Cloudy
6:22 PM 53.6 °F 53.6 °F 100% 30.26 in 10.0 mi Variable 4.6 mph - N/A   Scattered Clouds
6:56 PM 52.9 °F 52.9 °F 100% 30.27 in 10.0 mi Variable 4.6 mph - N/A   Clear
7:56 PM 52.9 °F 52.0 °F 97% 30.28 in 10.0 mi NNW 3.5 mph - N/A   Clear
8:56 PM 52.9 °F 52.0 °F 97% 30.28 in 10.0 mi Variable 5.8 mph - N/A   Scattered Clouds
9:56 PM 52.0 °F 52.0 °F 100% 30.31 in 10.0 mi ENE 3.5 mph - N/A   Mostly Cloudy
10:56 PM 52.0 °F 52.0 °F 100% 30.30 in 10.0 mi Variable 3.5 mph - N/A   Clear
11:56 PM 50.9 °F 50.9 °F 100% 30.30 in 10.0 mi ENE 4.6 mph - N/A   Clear